Theta_e
347 347 346 343 342 344 343 342 341 341 339 341 340 341 342 345 344 344 344 345 344 342 338 341 345 344 344 343 344 343 339 337 336 336 335 337 337 337 336 339 338 336 336
347 347 347 345 343 344 344 342 342 342 342 341 342 341 340 344 344 343 344 346 345 343 343 339 343 346 344 345 344 342 337 337 337 336 335 336 336 337 337 335 337 336 334
347 346 346 345 345 345 344 343 342 344 344 342 342 342 341 342 343 344 345 346 346 344 344 343 341 342 344 344 345 339 337 337 337 335 334 335 336 336 334 334 335 335 335
347 347 346 345 344 344 344 344 343 343 345 343 343 342 342 341 341 342 344 346 346 345 345 344 343 343 346 347 345 340 339 336 336 336 335 335 336 335 335 335 334 334 336
348 347 347 347 345 344 343 344 343 344 344 345 343 343 344 339 336 337 339 345 346 345 345 346 345 342 343 346 347 340 342 338 336 339 340 338 339 336 336 336 336 335 336
348 348 348 348 348 346 341 343 343 344 344 346 344 344 344 341 337 333 334 341 343 344 344 346 346 343 345 345 347 346 342 340 336 337 339 340 341 338 336 339 338 338 338
348 348 347 348 348 349 347 343 344 346 347 347 344 345 344 343 339 335 335 340 345 346 343 343 346 344 344 346 345 346 345 340 341 342 338 334 337 338 340 339 338 339 338
345 347 347 347 348 348 348 348 346 346 347 345 344 345 345 345 342 340 339 338 343 347 346 345 346 347 344 345 346 343 348 343 341 344 343 336 338 336 337 339 340 338 339
341 346 347 347 347 347 348 348 348 347 347 345 344 345 345 346 345 341 341 338 342 347 347 346 346 347 348 347 348 345 342 347 340 339 340 342 338 337 339 340 340 339 339
342 344 347 347 347 347 347 347 347 346 346 345 345 346 346 347 346 342 342 340 341 345 347 347 347 347 348 349 347 346 344 342 344 342 338 340 340 338 340 340 340 340 339
343 344 346 347 347 346 347 347 347 347 346 346 346 346 346 347 347 345 342 343 342 344 344 344 346 348 349 349 349 347 346 345 340 342 341 335 333 336 337 338 339 339 338
344 345 345 346 347 347 347 347 347 347 347 347 347 347 347 347 347 347 345 342 343 343 342 343 344 349 349 349 349 350 350 348 347 340 341 340 339 330 328 333 335 337 336
345 345 345 345 346 347 347 347 348 348 347 347 347 347 347 347 347 347 346 345 343 343 344 342 345 347 349 350 351 352 350 350 349 348 343 335 337 337 331 327 327 330 334
345 346 346 344 346 347 347 347 348 348 348 348 348 347 347 347 347 347 347 347 344 339 340 342 341 348 349 348 350 351 352 351 350 349 349 345 336 335 334 334 335 334 331
343 346 346 344 345 346 347 347 348 348 348 348 348 347 346 346 346 347 346 346 343 338 335 337 339 339 348 350 348 348 347 349 348 348 348 346 342 338 335 335 334 335 338
342 344 345 345 346 346 347 347 347 347 347 348 348 347 347 346 345 346 346 343 340 337 335 333 334 336 337 338 340 344 345 345 346 346 345 345 346 345 345 344 343 341 339
342 343 345 346 346 346 347 346 347 347 348 348 348 348 348 347 343 341 343 341 338 336 334 333 333 332 333 334 334 337 341 340 344 346 346 345 344 346 347 348 349 349 348
340 342 345 347 347 347 347 347 347 348 348 349 349 349 349 349 348 347 345 343 342 341 338 335 334 334 334 333 334 335 337 337 337 338 338 341 342 345 347 349 350 350 350
345 346 346 348 348 348 348 348 348 348 348 349 349 349 350 350 350 350 349 348 348 348 347 346 347 346 345 344 342 342 343 343 343 343 345 347 349 351 353 355 356 355 355
347 349 349 349 349 349 349 349 349 349 349 349 349 350 350 350 350 351 351 351 352 353 354 355 355 355 356 356 356 357 356 356 356 356 357 357 357 358 358 359 358 357 358
343 346 350 351 351 351 351 350 350 350 349 349 350 350 350 350 351 351 351 352 352 353 354 355 355 356 357 357 358 359 359 359 359 360 360 359 359 358 359 358 358 357 356
345 343 342 341 343 352 353 353 352 353 352 352 351 352 351 351 352 352 352 353 354 355 355 356 357 357 358 359 359 360 361 361 362 360 358 358 358 358 359 360 360 361 362
356 355 351 350 349 349 351 352 355 355 354 355 355 355 355 355 354 354 354 355 356 357 357 358 358 359 359 359 360 361 362 362 361 359 359 359 362 362 360 359 361 364 365
349 353 354 354 354 354 351 349 349 348 348 348 351 353 354 355 356 357 358 358 358 357 358 356 356 357 359 361 361 359 359 360 360 360 360 361 361 361 361 363 363 361 358
341 345 349 351 350 350 351 352 352 349 345 343 343 343 344 345 345 347 353 356 358 357 356 356 358 360 362 362 362 362 361 359 360 361 362 361 361 359 358 358 357 356 354
332 340 343 344 345 346 345 342 342 344 347 347 345 345 344 343 343 344 345 350 355 357 359 360 362 363 364 363 361 361 361 361 363 360 360 357 355 354 354 352 349 346 345
Wind_Speed
40 46 45 43 43 38 36 36 35 33 32 31 30 28 24 20 17 13 11 14 9 5 7 9 7 5 5 7 4 6 7 8 11 11 8 6 8 4 3 3 2 3 4
38 44 47 48 47 45 41 39 39 38 36 33 32 29 27 26 22 18 13 14 12 10 6 7 9 7 7 6 6 8 9 9 11 14 10 5 3 8 5 6 6 4 2
43 48 50 50 49 48 49 45 43 40 39 37 35 33 30 29 28 26 21 16 15 14 10 9 10 10 9 8 6 9 12 14 13 9 9 6 2 7 6 7 7 8 3
42 45 48 50 52 51 50 48 47 45 41 41 38 34 31 33 33 31 26 20 16 15 14 12 11 12 10 9 6 12 12 15 13 12 9 10 5 7 5 8 8 7 4
44 48 49 50 49 51 54 52 49 47 45 44 41 36 32 29 34 34 31 26 21 18 16 15 11 14 14 11 9 10 15 14 16 11 8 12 8 11 5 5 8 9 9
44 46 55 51 50 51 51 54 53 49 48 46 46 40 35 30 28 31 33 29 27 24 20 16 14 14 15 14 12 11 15 13 15 14 13 12 10 10 13 8 6 7 7
42 42 44 51 51 54 54 55 54 52 48 48 48 43 36 31 29 29 30 30 26 24 22 18 17 15 16 13 13 14 13 16 16 14 15 16 15 14 12 10 8 9 11
39 47 45 52 53 54 57 57 57 55 52 51 49 44 38 34 31 30 30 30 29 25 20 18 17 16 16 16 14 15 15 14 19 18 16 14 15 14 14 11 12 11 11
38 44 48 49 50 54 57 57 57 54 55 51 48 45 41 37 33 32 30 32 29 24 22 19 18 18 17 16 17 16 17 17 18 19 19 17 16 16 16 14 14 14 16
43 45 45 46 49 52 56 57 57 55 53 53 49 47 42 38 34 33 33 32 30 28 24 22 21 20 20 19 18 19 17 19 19 20 21 22 20 20 20 18 17 17 18
48 50 46 48 52 47 53 57 58 58 56 53 51 49 45 40 35 35 34 33 32 30 28 27 24 23 21 19 21 20 19 20 21 21 23 23 22 25 25 25 24 22 22
51 52 56 51 48 49 50 56 56 57 57 54 50 51 45 42 40 36 34 33 33 31 31 28 27 24 22 21 22 22 22 22 21 23 25 26 24 25 26 27 28 27 25
48 52 48 40 47 48 50 53 55 56 55 54 52 51 49 47 44 38 35 34 34 34 33 33 31 30 28 25 25 26 26 26 26 24 25 27 28 28 28 28 30 31 31
47 48 45 47 50 50 53 52 53 53 53 52 51 50 49 47 42 38 37 36 34 35 37 35 36 33 30 32 31 28 25 27 29 29 27 26 28 30 32 33 33 32 33
49 45 48 50 51 50 49 51 51 51 50 49 48 47 43 42 40 38 36 34 35 35 37 38 38 39 38 34 32 33 33 34 31 30 30 29 28 28 29 31 33 35 37
46 49 51 49 51 55 54 54 52 50 47 47 46 42 42 41 39 37 35 34 34 34 35 39 40 42 42 43 41 38 36 35 34 35 35 34 34 34 33 33 34 35 37
42 47 47 50 54 57 57 56 51 49 47 46 45 45 43 41 36 35 36 35 34 33 35 36 38 41 43 43 42 42 43 43 43 42 42 41 40 39 39 38 39 41 43
47 48 50 51 55 52 57 47 46 45 43 44 44 44 45 42 38 39 38 36 36 36 35 34 35 37 39 38 38 40 42 43 44 45 44 44 43 42 40 39 40 41 43
32 39 43 43 42 48 51 47 43 40 42 42 42 42 40 37 37 36 35 32 33 33 33 33 32 34 34 33 32 32 35 38 40 40 41 42 42 40 39 39 40 41 43
22 27 30 32 34 37 42 43 40 39 40 40 39 38 34 34 34 31 29 26 27 27 28 28 28 26 27 26 23 25 28 33 35 36 37 39 39 38 36 36 37 41 40
31 24 28 27 29 34 33 33 33 35 34 36 38 36 32 33 33 31 29 28 29 29 31 31 31 31 30 29 27 25 27 28 30 32 32 31 28 28 29 29 32 34 31
33 34 34 29 23 33 33 32 31 33 33 33 35 35 36 36 35 34 32 32 33 34 34 34 34 34 33 30 28 27 27 25 27 26 28 29 27 26 25 27 29 28 29
31 31 32 31 28 24 19 24 21 24 25 27 28 26 25 29 32 33 32 32 31 31 31 32 32 32 29 27 25 22 20 20 24 23 24 25 24 23 24 24 27 31 34
23 22 23 24 22 18 15 14 13 12 11 11 13 17 20 23 25 26 28 28 30 29 29 28 28 27 26 22 19 19 22 21 22 23 24 24 24 24 26 30 32 29 25
22 18 16 16 15 10 7 6 6 7 8 9 10 12 13 14 16 19 22 26 26 25 23 21 17 17 19 18 19 20 21 21 22 22 23 24 24 23 22 24 27 28 30
22 19 15 11 10 6 3 2 3 7 11 14 14 13 13 15 18 20 21 24 24 22 19 18 17 17 16 16 17 18 18 18 18 19 19 20 21 24 26 28 29 27 25
Wind_Direction
203 202 201 204 203 207 204 205 205 205 202 198 199 204 210 213 215 215 206 207 215 223 244 232 222 217 189 192 187 182 185 180 161 167 165 158 179 159 189 201 159 109 62
205 206 207 205 206 209 213 211 212 215 212 209 207 211 212 217 219 220 217 214 219 225 247 246 237 224 210 204 220 189 186 181 178 177 179 149 142 213 220 195 197 181 79
203 207 207 207 208 215 213 215 216 218 219 217 215 217 217 219 220 222 220 214 218 230 241 261 248 246 215 213 216 185 184 174 179 180 184 171 174 162 191 198 206 203 205
213 207 207 206 207 213 214 214 219 223 222 221 220 222 225 224 223 225 225 222 223 226 234 248 255 234 225 221 215 205 196 200 199 192 194 203 219 183 204 229 226 222 239
211 210 209 207 207 210 216 218 218 222 224 223 222 222 225 230 227 227 228 228 228 232 234 238 252 239 237 228 219 214 209 209 208 213 224 221 239 215 233 247 241 251 249
209 213 216 210 210 212 213 217 217 221 224 225 221 221 225 231 232 228 225 227 230 233 234 234 243 242 239 231 226 220 211 210 214 223 233 234 229 231 234 251 258 267 266
210 209 209 209 212 212 215 216 218 220 224 224 222 223 228 233 235 228 220 219 221 225 230 232 236 238 235 233 229 227 221 222 221 228 232 230 235 244 246 253 259 272 263
213 206 211 211 212 214 216 218 219 221 222 221 222 225 229 233 235 231 227 224 224 226 231 229 234 239 241 238 234 234 232 231 222 228 231 232 234 236 240 245 259 272 273
215 214 209 209 212 215 219 218 220 220 221 221 223 226 230 233 234 233 231 227 227 227 229 232 236 240 244 242 237 235 231 232 230 233 235 236 234 233 233 250 251 262 276
215 216 213 210 208 218 223 223 222 220 222 223 225 228 231 234 236 234 231 230 229 227 229 234 238 243 246 245 238 236 233 233 237 238 238 235 236 238 241 249 254 261 267
211 213 208 209 212 210 217 221 222 222 223 225 227 230 231 233 235 236 234 233 233 229 231 232 234 240 238 237 237 237 237 240 240 241 243 240 241 242 245 251 254 258 261
208 208 212 207 210 207 216 220 224 224 225 228 230 231 232 235 234 236 237 234 234 233 231 230 228 229 233 234 239 242 245 245 247 245 245 247 247 247 249 249 252 256 261
207 209 208 205 210 207 214 223 226 228 229 227 229 230 232 234 236 237 239 238 236 234 234 232 233 233 231 234 242 246 250 252 253 255 254 251 250 251 251 252 254 255 257
211 205 203 203 208 209 213 220 227 230 230 228 229 231 233 235 238 240 240 242 241 238 234 235 235 237 237 237 241 246 250 253 254 256 259 259 255 254 254 255 257 259 260
201 199 199 199 205 210 209 220 226 228 227 229 229 231 235 237 237 237 239 241 243 240 238 236 237 238 239 240 242 245 249 251 255 256 257 258 261 264 264 263 263 261 261
193 195 198 198 202 210 215 221 223 225 226 229 229 230 232 232 233 234 235 238 243 243 241 238 238 240 242 244 245 247 249 252 254 256 261 263 264 263 264 267 269 271 268
193 193 195 198 205 211 216 219 223 223 225 227 229 231 229 229 229 232 234 235 238 242 244 243 242 243 245 247 249 250 251 254 256 258 262 264 265 267 269 270 271 270 270
197 198 196 199 205 207 214 213 217 221 227 230 232 232 232 231 231 233 236 239 240 241 243 246 248 249 251 251 251 253 255 256 259 261 263 265 267 270 272 274 275 274 272
191 192 195 196 194 203 210 212 217 221 227 231 234 234 234 236 237 238 240 243 247 248 249 252 252 252 256 258 259 256 255 258 260 264 267 269 272 274 276 279 279 280 279
170 186 191 192 194 202 210 214 217 220 226 230 234 236 237 238 239 241 242 244 247 251 254 255 257 259 261 262 261 257 257 259 262 265 267 270 272 276 278 278 280 280 285
108 159 178 186 195 209 214 216 220 226 229 233 233 238 241 243 244 247 249 251 254 255 257 261 264 267 268 270 269 264 258 260 265 267 272 276 282 283 283 284 282 284 294
101 109 119 124 144 190 196 202 211 222 230 236 240 240 244 245 248 253 252 254 256 257 259 262 265 267 270 272 272 270 267 267 266 269 274 276 280 283 283 283 285 288 294
89 97 105 109 109 113 145 184 195 218 229 233 241 246 249 252 253 252 253 256 258 260 264 265 267 268 271 272 272 271 267 264 264 266 270 274 278 279 278 280 284 287 284
75 91 99 102 103 110 122 130 142 159 169 183 206 228 239 246 249 249 249 250 251 252 252 257 260 268 271 269 263 260 262 261 261 265 266 268 271 273 276 281 285 286 287
56 67 81 90 95 102 115 140 164 190 201 203 209 215 223 228 234 241 244 247 250 253 257 264 275 274 268 266 268 263 260 261 262 264 264 265 266 268 271 276 280 284 284
38 54 58 73 74 69 47 8 298 258 243 237 235 235 236 239 240 243 246 245 244 245 246 254 255 260 270 272 270 262 260 261 258 260 261 266 271 275 277 278 278 279 280